Meath Environmental Platform

Observations for Trim Patrick St

Time AQI Temp °C Hum % Pres Pa CO μg/m³ H₂S μg/m³ NO μg/m³ NO₂ μg/m³ O₃ μg/m³ SO₂ μg/m³ PM1 μg/m³ PM2.5 μg/m³ PM10 μg/m³
Tuesday 4 August 2026
22:23 2 17.4 70 38,457 0 7.16 2.01 17.75 62.02 0 5.43 9.49 10.43
22:22 2 17.4 70 38,456 0 7.61 2.05 15.19 58.78 0 4.57 8.76 9.63
22:21 2 17.5 70 38,455 0 8.42 2.07 28.77 63.82 0 5.43 9.44 10.38
22:20 2 17.5 70 38,453 0 4.68 1.93 17.29 59.72 0 5.43 9.52 10.47
22:19 2 17.5 70 38,450 0 4.49 1.65 12.87 57.65 0 2.86 7.35 8.08
22:18 2 17.5 70 38,446 0 7.35 2 19.05 60.37 0 4.57 9.49 10.44
22:17 2 17.5 70 38,441 0 7.22 1.87 15.89 61.39 0 4.57 9.46 10.41
22:16 2 17.6 70 38,435 0 6.9 1.96 20.73 60.11 0 4.57 9.46 10.41
22:15 2 17.6 70 38,426 0 7.09 2.13 17.57 59.95 0 5.43 10.93 12.02
22:14 2 17.6 70 38,414 0 7.64 2.19 22.02 63.37 0 5.43 9.48 10.43
22:13 2 17.6 68 38,399 0 5.2 2.14 14.33 60.95 0 6.29 10.32 11.35
22:12 2 17.7 69 38,378 0 5.75 2.18 11.55 60.91 0.28 5.43 10.98 12.08
22:11 2 17.7 69 38,352 0 6.51 2.09 19.68 61.62 0 5.43 10.25 11.28
22:10 2 17.7 68 38,315 0 5.7 2.23 15.18 62.05 0 5.43 10.36 11.39
22:09 2 17.7 68 38,267 0 5.85 2.3 12.73 60.82 0 4.57 8.88 9.77
22:08 2 17.8 69 38,200 0 7.56 2.14 20.88 63.29 0 6.29 10.97 12.07
22:07 2 17.8 69 38,114 0 7.24 2.19 23.83 57.82 0 2.86 6.63 7.3
22:06 2 17.8 70 38,000 0 7.22 2.14 21.75 60.78 0 4.57 8.77 9.65
22:04 2 17.9 69 37,640 0 7.27 2.21 14.84 61.65 0 3.71 7.4 8.14
22:03 2 17.9 68 37,367 0 7.53 2.28 19.39 59.85 0 2.86 6.72 7.39